Orbital Elements at Epoch 2459000.5 (2020-May-31.0) TDB
Reference: JPL 16 (heliocentric ecliptic J2000)
Element | Value | Uncertainty (1-sigma) | Units |
e | .2132741018645664 | 4.8939e-08 | |
a | 2.774087321265126 | 2.1601e-08 | au |
q | 2.182446339328425 | 1.3838e-07 | au |
i | 4.421529433515378 | 5.0713e-06 | deg |
node | 90.55428189568832 | 7.3834e-05 | deg |
peri | 70.96255397070939 | 7.5061e-05 | deg |
M | 286.4295124320886 | 1.543e-05 | deg |
tp | 2459345.389324348007 (2021-May-10.88932435) | 7.5025e-05 | TDB |
period | 1687.635366704249 4.62 | 1.9712e-05 5.397e-08 | d yr |
n | .2133162216806567 | 2.4916e-09 | deg/d |
Q | 3.365728303201827 | 2.6208e-08 | au |
|
| | Orbit Determination Parameters
Additional Information
|